Location: Newark
(52.4787°S, 179.0532°W)
Time: 11:19:39
(UTC+00:00)

Transit 2A Rocket - Pass Details

Date: 29 November 2019
Orbit: 594 x 909 km, 66.7° (Epoch: 07 December)

Event Time Altitude Azimuth Distance (km) Brightness Sun altitude
Rises 23:12:01 0° 246° (WSW) 3,528 8.2 58.4°
Reaches altitude 10° 23:15:11 10° 230° (SW) 2,613 7.6 58.6°
Maximum altitude 23:19:46 21° 182° (S) 1,938 7.0 58.7°
Drops below altitude 10° 23:24:22 10° 133° (SE) 2,616 7.7 58.8°
Sets 23:27:32 0° 117° (ESE) 3,533 8.3 58.9°
